This is the latest recevied weather packets stored in our database for station/object WA9AFM. If no packets are shown the sender has not sent any weather packets the latest 10 day(s).
| Time | Temp. | Humidity | Pressure | Rain* | Wind** | Luminosity | Snow |
|---|---|---|---|---|---|---|---|
| 1787608105 | 41.67° C | 27% | 1002.8 hPa | 0 mm | - | - | - |
| 1787607204 | 41.11° C | 28% | 1002.9 hPa | 0 mm | - | - | - |
| 1787606305 | 40.56° C | 29% | 1003.1 hPa | 0 mm | - | - | - |
| 1787605404 | 41.11° C | 26% | 1003.3 hPa | 0 mm | - | - | - |
| 1787604506 | 41.67° C | 26% | 1003.5 hPa | 0 mm | - | - | - |
| 1787603605 | 41.67° C | 26% | 1003.6 hPa | 0 mm | - | - | - |
| 1787602704 | 41.67° C | 25% | 1003.8 hPa | 0 mm | - | - | - |
| 1787601805 | 41.67° C | 26% | 1003.9 hPa | 0 mm | - | - | - |
| 1787600905 | 41.67° C | 28% | 1004 hPa | 0 mm | - | - | - |
| 1787600004 | 41.67° C | 27% | 1004.1 hPa | 0 mm | - | - | - |
| 1787599105 | 41.11° C | 27% | 1004.1 hPa | 0 mm | - | - | - |
| 1787598204 | 41.67° C | 27% | 1004.2 hPa | 0 mm | - | - | - |
| 1787597305 | 41.11° C | 27% | 1004.3 hPa | 0 mm | - | - | - |
| 1787596405 | 40.56° C | 30% | 1004.5 hPa | 0 mm | - | - | - |
| 1787595506 | 38.33° C | 29% | 1004.6 hPa | 0 mm | - | - | - |
| 1787594605 | 38.33° C | 28% | 1004.8 hPa | 0 mm | - | - | - |
| 1787593705 | 37.78° C | 29% | 1004.8 hPa | 0 mm | - | - | - |
| 1787592806 | 37.78° C | 33% | 1004.8 hPa | 0 mm | - | - | - |
| 1787591905 | 36.67° C | 36% | 1004.9 hPa | 0 mm | - | - | - |
| 1787591004 | 35° C | 38% | 1005 hPa | 0 mm | - | - | - |
| 1787590106 | 34.44° C | 40% | 1005.2 hPa | 0 mm | - | - | - |
| 1787589205 | 34.44° C | 41% | 1005 hPa | 0 mm | - | - | - |
| 1787588306 | 33.89° C | 44% | 1005 hPa | 0 mm | - | - | - |
| 1787587405 | 32.78° C | 45% | 1005 hPa | 0 mm | - | - | - |
| 1787586504 | 32.22° C | 46% | 1005 hPa | 0 mm | - | - | - |
* Rain latest hour (hover to see other rain measurements)
** Current wind speed in m/s (hover to see current wind gust speed)